When you browse on this site, cookies collect data to enhance your experience and personalize the content and advertising you see.
Visit our Privacy Policy to learn more. By continuing to use the site, you agree to this use of cookies and data.
  • In Österreich
  • Länderverzeichnis
  • Für 7 Tage
  • Wassertemperatur
  • Satellitenkarten
  • Wetterkarte
  • News
  • Widgets
  • user-avatar
    Anmelden

    Stündliche Wetter Boma

    Heute, 18 Januar, Freitag

    Zeit Temperatur Niederschläge Wind Luftdruck Luftfeuchtigkeit
    00:00 +22°C° 0 mm 1 m/S 700 mmHg 28%
    01:00 +22°C° 0 mm 1 m/S 700 mmHg 30%
    02:00 +21°C° 0 mm 1 m/S 700 mmHg 29%
    03:00 +21°C° 0 mm 1 m/S 700 mmHg 29%
    04:00 +18°C° 0 mm 0 m/S 700 mmHg 29%
    05:00 +17°C° 0 mm 0 m/S 700 mmHg 31%
    06:00 +17°C° 0 mm 0 m/S 700 mmHg 33%
    07:00 +18°C° 0 mm 0 m/S 700 mmHg 33%
    08:00 +22°C° 0 mm 0 m/S 701 mmHg 28%
    09:00 +27°C° 0 mm 0 m/S 702 mmHg 22%
    10:00 +31°C° 0 mm 0 m/S 702 mmHg 16%
    11:00 +33°C° 0 mm 0 m/S 702 mmHg 14%
    12:00 +35°C° 0 mm 0 m/S 701 mmHg 12%
    13:00 +40°C° 0 mm 1 m/S 701 mmHg 11%
    14:00 +40°C° 0 mm 1 m/S 700 mmHg 11%
    15:00 +39°C° 0 mm 1 m/S 699 mmHg 11%
    16:00 +39°C° 0 mm 1 m/S 699 mmHg 11%
    17:00 +34°C° 0 mm 1 m/S 698 mmHg 14%
    18:00 +31°C° 0 mm 1 m/S 698 mmHg 18%
    19:00 +28°C° 0 mm 1 m/S 698 mmHg 21%
    20:00 +27°C° 0 mm 1 m/S 699 mmHg 23%
    21:00 +26°C° 0 mm 1 m/S 699 mmHg 24%
    22:00 +25°C° 0 mm 1 m/S 700 mmHg 25%
    23:00 +24°C° 0 mm 1 m/S 700 mmHg 26%

    Morgen, 19 Januar, Samstag

    Zeit Temperatur Niederschläge Wind Luftdruck Luftfeuchtigkeit
    00:00 +23°C° 0 mm 1 m/S 700 mmHg 27%
    01:00 +22°C° 0 mm 1 m/S 700 mmHg 28%
    02:00 +22°C° 0 mm 1 m/S 700 mmHg 32%
    03:00 +21°C° 0 mm 1 m/S 700 mmHg 37%
    04:00 +18°C° 0 mm 0 m/S 700 mmHg 41%
    05:00 +18°C° 0 mm 0 m/S 700 mmHg 51%
    06:00 +18°C° 0 mm 0 m/S 700 mmHg 62%
    07:00 +18°C° 0 mm 0 m/S 700 mmHg 72%
    08:00 +24°C° 0 mm 1 m/S 701 mmHg 60%
    09:00 +28°C° 0 mm 1 m/S 702 mmHg 47%
    10:00 +32°C° 0 mm 1 m/S 703 mmHg 35%
    11:00 +35°C° 0 mm 1 m/S 702 mmHg 27%
    12:00 +36°C° 0 mm 0 m/S 702 mmHg 20%
    13:00 +38°C° 0 mm 0 m/S 702 mmHg 12%
    14:00 +40°C° 0 mm 1 m/S 701 mmHg 12%
    15:00 +40°C° 0 mm 1 m/S 700 mmHg 12%
    16:00 +39°C° 0 mm 1 m/S 699 mmHg 12%
    17:00 +34°C° 0 mm 1 m/S 699 mmHg 16%
    18:00 +29°C° 0 mm 0 m/S 699 mmHg 20%
    19:00 +25°C° 0 mm 0 m/S 699 mmHg 24%
    20:00 +25°C° 0 mm 0 m/S 699 mmHg 25%
    21:00 +24°C° 0 mm 0 m/S 700 mmHg 25%
    22:00 +23°C° 0 mm 0 m/S 701 mmHg 26%
    23:00 +22°C° 0 mm 0 m/S 700 mmHg 28%

    übermorgen, 20 Januar, Sonntag

    Zeit Temperatur Niederschläge Wind Luftdruck Luftfeuchtigkeit
    00:00 +23°C° 0 mm 1 m/S 700 mmHg 30%
    01:00 +23°C° 0 mm 1 m/S 700 mmHg 31%
    02:00 +22°C° 0 mm 1 m/S 700 mmHg 42%
    03:00 +21°C° 0 mm 1 m/S 700 mmHg 52%
    04:00 +19°C° 0 mm 0 m/S 700 mmHg 63%
    05:00 +21°C° 0 mm 1 m/S 700 mmHg 72%
    06:00 +21°C° 0 mm 1 m/S 701 mmHg 81%
    07:00 +21°C° 0 mm 1 m/S 701 mmHg 90%
    08:00 +24°C° 0 mm 1 m/S 702 mmHg 76%
    09:00 +28°C° 0 mm 1 m/S 702 mmHg 63%
    10:00 +31°C° 0 mm 1 m/S 703 mmHg 49%
    11:00 +33°C° 0 mm 1 m/S 702 mmHg 38%
    12:00 +36°C° 0 mm 1 m/S 702 mmHg 28%
    13:00 +40°C° 0 mm 1 m/S 701 mmHg 17%
    14:00 +40°C° 0 mm 1 m/S 700 mmHg 16%
    15:00 +39°C° 0 mm 1 m/S 700 mmHg 15%
    16:00 +39°C° 0 mm 1 m/S 699 mmHg 13%
    17:00 +35°C° 0 mm 1 m/S 699 mmHg 17%
    18:00 +29°C° 0 mm 0 m/S 699 mmHg 21%
    19:00 +26°C° 0 mm 0 m/S 699 mmHg 25%
    20:00 +25°C° 0 mm 0 m/S 699 mmHg 26%
    21:00 +26°C° 0 mm 1 m/S 700 mmHg 26%
    22:00 +26°C° 0 mm 1 m/S 701 mmHg 27%
    23:00 +25°C° 0 mm 1 m/S 700 mmHg 27%

    21 Januar, Montag

    Zeit Temperatur Niederschläge Wind Luftdruck Luftfeuchtigkeit
    00:00 +24°C° 0 mm 1 m/S 700 mmHg 27%
    01:00 +21°C° 0 mm 0 m/S 700 mmHg 27%
    02:00 +22°C° 0 mm 1 m/S 700 mmHg 31%
    03:00 +21°C° 0 mm 1 m/S 700 mmHg 36%
    04:00 +20°C° 0 mm 1 m/S 699 mmHg 40%
    05:00 +18°C° 0 mm 0 m/S 700 mmHg 50%
    06:00 +18°C° 0 mm 0 m/S 700 mmHg 61%
    07:00 +18°C° 0 mm 0 m/S 701 mmHg 72%
    08:00 +22°C° 0 mm 0 m/S 701 mmHg 61%
    09:00 +26°C° 0 mm 0 m/S 702 mmHg 49%
    10:00 +32°C° 0 mm 1 m/S 703 mmHg 38%
    11:00 +35°C° 0 mm 1 m/S 702 mmHg 29%
    12:00 +37°C° 0 mm 1 m/S 702 mmHg 21%
    13:00 +41°C° 0 mm 1 m/S 701 mmHg 12%
    14:00 +40°C° 0 mm 1 m/S 700 mmHg 11%
    15:00 +40°C° 0 mm 1 m/S 699 mmHg 11%
    16:00 +39°C° 0 mm 1 m/S 698 mmHg 10%
    17:00 +35°C° 0 mm 1 m/S 698 mmHg 13%
    18:00 +31°C° 0 mm 1 m/S 698 mmHg 17%
    19:00 +26°C° 0 mm 0 m/S 698 mmHg 21%
    20:00 +25°C° 0 mm 0 m/S 699 mmHg 21%
    21:00 +24°C° 0 mm 0 m/S 699 mmHg 22%
    22:00 +24°C° 0 mm 0 m/S 700 mmHg 22%
    23:00 +23°C° 0 mm 0 m/S 700 mmHg 24%

    22 Januar, Dienstag

    Zeit Temperatur Niederschläge Wind Luftdruck Luftfeuchtigkeit
    00:00 +22°C° 0 mm 0 m/S 700 mmHg 25%
    01:00 +23°C° 0 mm 1 m/S 699 mmHg 26%
    02:00 +22°C° 0 mm 1 m/S 699 mmHg 38%
    03:00 +22°C° 0 mm 1 m/S 699 mmHg 49%
    04:00 +21°C° 0 mm 1 m/S 699 mmHg 61%
    05:00 +21°C° 0 mm 1 m/S 700 mmHg 71%
    06:00 +19°C° 0 mm 0 m/S 700 mmHg 81%
    07:00 +19°C° 0 mm 0 m/S 701 mmHg 91%
    08:00 +25°C° 0 mm 1 m/S 701 mmHg 78%
    09:00 +28°C° 0 mm 1 m/S 702 mmHg 64%
    10:00 +31°C° 0 mm 1 m/S 702 mmHg 51%
    11:00 +34°C° 0 mm 1 m/S 702 mmHg 40%
    12:00 +36°C° 0 mm 1 m/S 701 mmHg 30%
    13:00 +40°C° 0 mm 1 m/S 701 mmHg 20%
    14:00 +40°C° 0 mm 1 m/S 700 mmHg 19%
    15:00 +39°C° 0 mm 1 m/S 699 mmHg 17%
    16:00 +39°C° 0 mm 1 m/S 698 mmHg 16%
    17:00 +35°C° 0 mm 1 m/S 698 mmHg 21%
    18:00 +29°C° 0 mm 0 m/S 698 mmHg 26%
    19:00 +26°C° 0 mm 0 m/S 698 mmHg 31%
    20:00 +25°C° 0 mm 0 m/S 698 mmHg 34%
    21:00 +26°C° 0 mm 1 m/S 699 mmHg 37%
    22:00 +25°C° 0 mm 1 m/S 699 mmHg 40%
    23:00 +25°C° 0 mm 1 m/S 699 mmHg 43%

    23 Januar, Mittwoch

    Zeit Temperatur Niederschläge Wind Luftdruck Luftfeuchtigkeit
    00:00 +24°C° 0 mm 1 m/S 699 mmHg 46%
    01:00 +21°C° 0 mm 0 m/S 699 mmHg 48%
    02:00 +23°C° 0 mm 1 m/S 699 mmHg 56%
    03:00 +22°C° 0 mm 1 m/S 699 mmHg 64%
    04:00 +22°C° 0 mm 1 m/S 699 mmHg 71%
    05:00 +22°C° 0 mm 1 m/S 699 mmHg 79%
    06:00 +22°C° 0 mm 1 m/S 700 mmHg 86%
    07:00 +22°C° 0 mm 1 m/S 700 mmHg 93%
    08:00 +25°C° 0 mm 1 m/S 701 mmHg 82%
    09:00 +27°C° 0 mm 1 m/S 701 mmHg 70%
    10:00 +30°C° 0 mm 1 m/S 702 mmHg 59%
    11:00 +33°C° 0 mm 1 m/S 701 mmHg 47%
    12:00 +35°C° 0 mm 1 m/S 701 mmHg 34%
    13:00 +39°C° 0 mm 1 m/S 700 mmHg 22%
    14:00 +39°C° 0 mm 1 m/S 699 mmHg 20%
    15:00 +39°C° 0 mm 1 m/S 699 mmHg 18%
    16:00 +39°C° 0 mm 1 m/S 698 mmHg 16%
    17:00 +33°C° 0 mm 0 m/S 698 mmHg 20%
    18:00 +30°C° 0 mm 0 m/S 698 mmHg 24%
    19:00 +26°C° 0 mm 0 m/S 698 mmHg 28%
    20:00 +25°C° 0 mm 0 m/S 698 mmHg 32%
    21:00 +26°C° 0 mm 1 m/S 699 mmHg 36%
    22:00 +25°C° 0 mm 1 m/S 699 mmHg 40%
    23:00 +25°C° 0 mm 1 m/S 699 mmHg 50%
    Mehr zeigen